{"data":{"norad_id":60124,"epoch":"2026-09-21T12:10:18.293088Z","epoch_age_seconds":95217,"freshness":"FRESH","line1":"1 60124U 24118M   26264.50715617 -.00013152  00000+0 -10379-3 0  9997","line2":"2 60124  53.1578 336.3170 0000805  72.1551 287.9555 15.69730804128747","mean_motion":15.69730804,"eccentricity":8.05e-5,"inclination_deg":53.1578,"raan_deg":336.317,"arg_perigee_deg":72.1551,"mean_anomaly_deg":287.9555,"bstar":-0.00010379,"rev_number":12874,"period_min":91.735474409407,"perigee_km":359.12482475309,"apogee_km":360.20961123218,"semimajor_km":6737.8042179926,"source":"CELESTRAK","updated_at":"2026-09-22T09:00:49.156774Z"}}